User: anonymous   Login
Location: Invercargill
(46.4000°S, 168.3500°E)
Time: 22:58:49
(UTC+13:00)
Language:

Resurs 01 Rocket - Orbit

View from above orbital plane
View from above orbital plane
View from above satellite
View from above satellite

Ground track
Ground track

The orbit data is extracted from the following two-line orbital elements,

1 23343U 94074B   19291.94912413 +.00000005 +00000-0 +81284-5 0  9997
2 23343 098.0376 341.5760 0006333 200.5446 216.8898 14.76794483342624
Epoch (UTC): 18 October 2019 22:46:44
Eccentricity: 0.0006333
inclination: 98.0376°
perigee height: 635 km
apogee height: 644 km
right ascension of ascending node: 341.5760°
argument of perigee: 200.5446°
revolutions per day: 14.76794483
mean anomaly at epoch: 216.8898°
orbit number at epoch: 34262

The dashed part of the orbit path shows where the satellite is in the earth's shadow,  

DLR